Location: Prague
(50.0830°N, 14.4670°E)
Time: 15:48:23
(UTC+01:00)

ITUPSAT 1 - Pass Details

Date: 29 November 2021
Orbit: 700 x 713 km, 98.6° (Epoch: 26 January)

Event Time Altitude Azimuth Distance (km) Brightness Sun altitude
Rises 06:16:55 0° 150° (SSE) 3,086 ? -12.3°
Reaches altitude 10° 06:19:11 10° 147° (SSE) 2,174 ? -11.9°
Maximum altitude 06:23:50 56° 69° (ENE) 843 ? -11.2°
Drops below altitude 10° 06:28:32 10° 352° (N) 2,197 ? -10.5°
Sets 06:30:50 0° 349° (N) 3,123 ? -10.2°
